FW3936 Weather Reports


time (UTC)temp
F
wind
direction
speed
knots
gust
knots
rain 1hr
in
rain 24hr
in
rain mn
in
humidity
%
barometer
mb
20260507014615 62 333 0.9 6.1 0.00 0.00 0.00 74 1013.1
20260507013049 63 336 1.7 7.0 0.00 0.00 0.00 74 1013.1
20260507011553 63 324 1.7 6.1 0.00 0.00 0.00 74 1012.7
20260507010044 64 333 0.9 7.0 0.00 0.00 0.00 73 1012.4
20260507004537 64 350 1.7 8.7 0.00 0.00 0.00 73 1012.2
20260507003035 65 338 3.5 9.6 0.00 0.00 0.00 73 1012.5
20260507001552 66 321 0.9 8.7 0.00 0.00 0.00 72 1012.1
20260507000035 66 39 0.9 7.8 0.00 0.00 0.00 72 1011.9
20260506234527 66 325 2.6 10.4 0.00 0.00 0.00 72 1011.8
20260506233024 68 5 2.6 10.4 0.00 0.00 0.00 70 1011.4
20260506231521 68 17 1.7 9.6 0.00 0.00 0.00 71 1011.5
20260506230019 70 295 2.6 9.6 0.00 0.00 0.00 68 1011.3
20260506224514 72 360 3.5 7.8 0.00 0.00 0.00 67 1011.2
20260506223010 73 284 1.7 10.4 0.00 0.00 0.00 67 1011.0
20260506221510 75 15 1.7 7.8 0.00 0.00 0.00 67 1010.7
20260506220010 75 49 2.6 8.7 0.00 0.00 0.00 67 1010.6
20260506214509 74 348 1.7 7.8 0.00 0.00 0.00 68 1010.7
20260506213007 76 355 1.7 10.4 0.00 0.00 0.00 66 1010.7
20260506211508 78 100 2.6 8.7 0.00 0.00 0.00 65 1010.5
20260506210010 79 360 1.7 8.7 0.00 0.00 0.00 66 1010.6
20260506204509 76 360 1.7 6.1 0.00 0.00 0.00 69 1010.5
20260506203002 79 327 2.6 7.8 0.00 0.00 0.00 65 1010.8
20260506201501 82 102 0.0 2.6 0.00 0.00 0.00 66 1010.5
20260506200101 81 102 0.9 2.6 0.00 0.00 0.00 68 1010.7
20260506200004 81 102 0.0 2.6 0.00 0.00 0.00 68 1010.8
20260506194557 82 102 0.0 2.6 0.00 0.00 0.00 66 1010.6
20260506193058 82 103 1.7 5.2 0.00 0.00 0.00 67 1010.5
20260506191601 83 101 3.5 7.0 0.00 0.00 0.00 66 1010.7
20260506190055 84 96 3.5 7.0 0.00 0.00 0.00 64 1010.8
20260506184556 83 93 0.9 5.2 0.00 0.00 0.00 68 1011.0
20260506183100 81 94 0.9 7.0 0.00 0.00 0.00 68 1011.2
20260506181600 82 96 1.7 7.8 0.00 0.00 0.00 67 1011.2
20260506180042 79 94 1.7 6.1 0.00 0.00 0.00 72 1011.3
20260506174539 76 105 0.9 4.3 0.00 0.00 0.00 74 1011.4
20260506173102 75 105 0.9 6.1 0.00 0.00 0.00 73 1011.7
20260506171541 77 92 2.6 8.7 0.00 0.00 0.00 74 1011.8
20260506170047 77 88 1.7 7.0 0.00 0.00 0.00 73 1011.8
20260506164529 77 94 1.7 6.1 0.00 0.00 0.00 73 1011.8
20260506163029 77 120 2.6 6.1 0.00 0.00 0.00 74 1011.8
20260506161524 77 121 0.9 3.5 0.00 0.00 0.00 74 1011.7
20260506160019 76 121 0.9 3.5 0.00 0.00 0.00 73 1011.6
20260506154515 75 121 0.9 3.5 0.00 0.00 0.00 73 1011.6
20260506153020 74 121 0.9 4.3 0.00 0.00 0.00 71 1011.3
20260506151509 74 121 0.9 3.5 0.00 0.00 0.00 70 1011.1
20260506150014 74 121 0.9 3.5 0.00 0.00 0.00 68 1011.0
20260506144502 73 121 0.0 1.7 0.00 0.00 0.00 67 1010.9
20260506143101 73 121 0.0 1.7 0.00 0.00 0.00 67 1010.9
20260506141601 73 121 0.0 2.6 0.00 0.00 0.00 67 1010.8
20260506140056 73 121 0.0 3.5 0.00 0.00 0.00 67 1010.4
20260506134552 73 121 0.9 3.5 0.00 0.00 0.00 67 1009.9
20260506133102 73 121 0.9 4.3 0.00 0.00 0.00 67 1009.5
20260506131548 73 121 0.9 6.1 0.00 0.00 0.00 68 1009.5
20260506130052 73 121 1.7 6.1 0.00 0.00 0.00 68 1009.2
20260506124546 73 132 0.0 3.5 0.00 0.00 0.00 69 1009.2
20260506123044 73 133 0.9 3.5 0.00 0.00 0.00 70 1009.3
20260506121542 73 133 0.9 1.7 0.00 0.00 0.00 71 1009.3
20260506120042 73 133 0.0 2.6 0.00 0.00 0.00 71 1009.2
20260506114547 73 133 0.9 3.5 0.00 0.00 0.00 71 1009.2
20260506113041 73 133 0.0 1.7 0.00 0.00 0.00 71 1009.2
20260506111540 73 133 0.0 3.5 0.00 0.00 0.00 71 1009.2
20260506110044 73 133 1.7 4.3 0.00 0.00 0.00 71 1009.1
20260506104605 73 133 0.0 3.5 0.00 0.00 0.00 71 1009.0
20260506103041 73 134 0.0 4.3 0.00 0.00 0.00 71 1008.9
20260506101541 73 134 0.0 4.3 0.00 0.00 0.00 71 1009.1
20260506100043 73 134 0.0 3.5 0.00 0.00 0.00 71 1009.0
20260506094538 73 134 0.9 5.2 0.00 0.00 0.00 72 1009.0
20260506093036 73 131 2.6 7.0 0.00 0.00 0.00 72 1008.8
20260506091535 73 130 1.7 6.1 0.00 0.00 0.00 72 1008.6
20260506090043 73 130 0.9 4.3 0.00 0.00 0.00 72 1008.7
20260506084536 73 130 1.7 6.1 0.00 0.00 0.00 73 1008.6
20260506083039 73 126 3.5 9.6 0.00 0.00 0.00 73 1008.7
20260506081529 73 126 0.9 8.7 0.00 0.00 0.00 73 1008.9
20260506073026 73 131 2.6 7.8 0.00 0.00 0.00 72 1009.0
20260506071526 73 128 2.6 5.2 0.00 0.00 0.00 72 1009.2
20260506061520 74 128 1.7 7.8 0.00 0.00 0.00 73 1009.6
20260506044511 75 120 2.6 8.7 0.00 0.00 0.00 73 1009.2
20260506043016 75 126 1.7 6.1 0.00 0.00 0.00 73 1009.2
20260506041509 75 135 3.5 8.7 0.00 0.00 0.00 73 1009.2
20260506040011 75 130 1.7 8.7 0.00 0.00 0.00 74 1009.0
20260506034507 75 127 3.5 7.8 0.00 0.00 0.00 74 1008.8
20260506033006 75 128 1.7 4.3 0.00 0.00 0.00 74 1008.7
20260506031506 76 123 3.5 6.1 0.00 0.00 0.00 74 1008.4
20260506030005 76 113 1.7 6.1 0.00 0.00 0.00 74 1008.2
20260506024511 76 102 2.6 7.0 0.00 0.00 0.00 74 1007.9
20260506023004 77 110 1.7 6.1 0.00 0.00 0.00 73 1007.6
20260506021505 77 110 2.6 7.0 0.00 0.00 0.00 73 1007.5
20260506020003 77 131 1.7 3.5 0.00 0.00 0.00 73 1007.4